Wausau, WI

1:43 PM CDT on September 26, 2017 (GMT -0500)
Wausau Downtown

Weather History for KAUW - October, 2013

Change the Weather History Date:

Thursday, October 3, 2013

  Actual Average Record
Temperature  
Mean Temperature 58 °F 51 °F  
Max Temperature 66 °F 61 °F 83 °F (1997)
Min Temperature 50 °F 41 °F 23 °F (1945)
Degree Days  
Heating Degree Days 7 14  
Month to date heating degree days 16 41  
Since 1 July heating degree days 244 334  
Cooling Degree Days 0 0  
Month to date cooling degree days 0 0  
Year to date cooling degree days 506 405  
Growing Degree Days 8 (Base 50)    
Moisture  
Dew Point 53 °F    
Average Humidity 71    
Maximum Humidity 100    
Minimum Humidity 42    
Precipitation  
Precipitation 0.80 in 0.12 in 4.60 in (1900)
Month to date precipitation 0.80 0.34  
Year to date precipitation 31.19 26.45  
Snow  
Snow 0.00 in 0.00 in 0.00 in ()
Month to date snowfall 0.0 0.0  
Since 1 July snowfall 0.0 0.0  
Snow Depth 0.00 in    
Sea Level Pressure  
Sea Level Pressure 29.92 in    
Wind  
Wind Speed 6 mph (East)    
Max Wind Speed 15 mph    
Max Gust Speed 21 mph    
Visibility 7 miles    
Events Rain , Thunderstorm    
T = Trace of Precipitation, MM = Missing Value Source: NWS Daily Summary

Daily Weather History Graph

Daily Weather History Graph

Search for Another Location

Airport or City:

Trip Planner

Search our weather history database for the weather conditions in past years. The results will help you decide how hot, cold, wet, or windy it might be!

Date:

Astronomy

Oct. 03, 2013 Rise Set
Actual Time 6:59 AM CDT 6:34 PM CDT
Civil Twilight 6:30 AM CDT 7:03 PM CDT
Nautical Twilight 5:56 AM CDT 7:37 PM CDT
Astronomical Twilight 5:21 AM CDT 8:12 PM CDT
Moon 5:30 AM CDT (10/3) 5:44 PM CDT (10/3)
Length of Visible Light 12h 33m
Length of Day
11h 35m
Waning Crescent, 2% of the Moon is Illuminated
Oct 3
Waning Crescent
Oct 4
New
Oct 11
First Quarter
Oct 18
Full
Oct 26
Last Quarter

Hourly Weather History & Observations

Time (CDT) Temp. Dew Point Humidity Pressure Visibility Wind Dir Wind Speed Gust Speed Precip Events Conditions
12:54 AM 59.0 °F 39.9 °F 49% 29.95 in 10.0 mi ESE 6.9 mph - N/A   Overcast
1:54 AM 59.0 °F 37.0 °F 44% 29.93 in 10.0 mi SE 6.9 mph - N/A   Overcast
2:54 AM 60.1 °F 37.9 °F 44% 29.96 in 10.0 mi NW 8.1 mph - N/A   Overcast
3:54 AM 52.0 °F 48.0 °F 86% 29.98 in 3.0 mi NE 10.4 mph 19.6 mph 0.08 in Rain Heavy Rain
4:54 AM 51.1 °F 46.9 °F 86% 29.92 in 10.0 mi East 10.4 mph 17.3 mph 0.01 in   Overcast
5:54 AM 51.1 °F 46.0 °F 83% 29.94 in 10.0 mi East 3.5 mph - 0.01 in   Clear
6:54 AM 50.0 °F 46.0 °F 86% 29.94 in 10.0 mi East 5.8 mph - N/A   Clear
7:54 AM 51.1 °F 46.0 °F 83% 29.95 in 10.0 mi Calm Calm - N/A   Clear
8:54 AM 55.0 °F 46.9 °F 74% 29.94 in 10.0 mi East 8.1 mph - N/A   Clear
9:54 AM 57.9 °F 48.9 °F 72% 29.93 in 10.0 mi NE 4.6 mph - N/A   Clear
10:54 AM 61.0 °F 50.0 °F 67% 29.92 in 10.0 mi East 6.9 mph - N/A   Clear
11:54 AM 64.0 °F 51.1 °F 63% 29.92 in 10.0 mi SE 5.8 mph - N/A   Clear
12:54 PM 66.0 °F 53.1 °F 63% 29.91 in 10.0 mi East 5.8 mph - N/A   Clear
1:54 PM 64.9 °F 53.1 °F 65% 29.91 in 10.0 mi East 6.9 mph - N/A   Clear
2:54 PM 64.9 °F 54.0 °F 68% 29.89 in 10.0 mi NE 5.8 mph - N/A   Scattered Clouds
3:54 PM 64.0 °F 54.0 °F 70% 29.88 in 10.0 mi East 5.8 mph - N/A   Overcast
4:05 PM 62.6 °F 55.4 °F 77% 29.87 in 10.0 mi ENE 6.9 mph - 0.00 in Rain , Thunderstorm Light Rain
4:20 PM 62.6 °F 55.4 °F 77% 29.89 in 8.0 mi ESE 5.8 mph - 0.01 in Rain Rain
4:42 PM 60.8 °F 57.2 °F 88% 29.90 in 3.0 mi ESE 9.2 mph - 0.07 in Rain , Thunderstorm Rain
4:54 PM 60.1 °F 57.0 °F 90% 29.91 in 3.0 mi NE 4.6 mph - 0.09 in Rain , Thunderstorm Rain
5:11 PM 59.0 °F 57.2 °F 94% 29.91 in 2.0 mi Calm Calm - 0.07 in Rain , Thunderstorm Heavy Thunderstorms and Rain
5:13 PM 59.0 °F 57.2 °F 94% 29.91 in 1.8 mi ENE 4.6 mph - 0.10 in Rain , Thunderstorm Heavy Thunderstorms and Rain
5:29 PM 59.0 °F 57.2 °F 94% 29.90 in 1.2 mi Variable 4.6 mph - 0.31 in Rain Heavy Rain
5:36 PM 59.0 °F 57.2 °F 94% 29.90 in 3.0 mi ENE 3.5 mph - 0.32 in Rain Rain
5:52 PM 59.0 °F 57.2 °F 94% 29.92 in 5.0 mi Variable 3.5 mph - 0.34 in Rain Rain
5:54 PM 59.0 °F 57.0 °F 93% 29.94 in 2.5 mi Calm Calm - 0.36 in Rain Heavy Rain
6:02 PM 57.2 °F 57.2 °F 100% 29.91 in 1.2 mi ENE 5.8 mph - 0.08 in Rain Heavy Rain
6:07 PM 57.2 °F 55.4 °F 94% 29.90 in 2.0 mi East 9.2 mph - 0.09 in Rain Rain
6:15 PM 57.2 °F 57.2 °F 100% 29.90 in 4.0 mi East 9.2 mph - 0.10 in Rain Rain
6:41 PM 57.2 °F 55.4 °F 94% 29.89 in 10.0 mi East 11.5 mph - 0.11 in Rain Light Rain
6:54 PM 57.9 °F 55.9 °F 93% 29.92 in 10.0 mi East 11.5 mph - 0.11 in Rain Light Rain
7:05 PM 57.2 °F 55.4 °F 94% 29.90 in 10.0 mi East 10.4 mph - 0.00 in Rain Light Rain
7:54 PM 57.0 °F 55.0 °F 93% 29.93 in 6.0 mi East 10.4 mph - 0.04 in Rain Rain
8:25 PM 57.2 °F 55.4 °F 94% 29.91 in 10.0 mi East 9.2 mph - 0.00 in Rain Light Rain
8:54 PM 55.9 °F 55.0 °F 97% 29.93 in 8.0 mi ESE 9.2 mph - 0.01 in Rain Light Rain
9:02 PM 55.4 °F 55.4 °F 100% 29.91 in 6.0 mi East 10.4 mph - 0.01 in Rain Light Rain
9:40 PM 55.4 °F 55.4 °F 100% 29.91 in 10.0 mi East 9.2 mph - 0.01 in Rain Light Rain
9:54 PM 55.9 °F 54.0 °F 93% 29.93 in 10.0 mi East 9.2 mph - 0.01 in   Overcast
10:32 PM 55.4 °F 53.6 °F 94% 29.91 in 8.0 mi East 9.2 mph - 0.01 in Rain Light Rain
11:54 PM 55.9 °F 54.0 °F 93% 29.94 in 10.0 mi Calm Calm - 0.07 in   Overcast